User: anonymous   Login
Location: Lafig�re
(44.4503°N, 4.0357°E)
Time: 10:54:31
(UTC+00:00)
Language:

CZ-2C R/B - Orbit

View from above orbital plane
View from above orbital plane
View from above satellite
View from above satellite

Ground track
Ground track

The orbit data is extracted from the following two-line orbital elements,

1 28480U 04046B   20329.86914973 +.00000048 +00000-0 +32482-4 0  9994
2 28480 098.0639 352.2622 0143063 109.8804 062.1350 14.25734087833279
Epoch (UTC): 24 November 2020 20:51:34
Eccentricity: 0.0143063
inclination: 98.0639°
perigee height: 703 km
apogee height: 909 km
right ascension of ascending node: 352.2622°
argument of perigee: 109.8804°
revolutions per day: 14.25734087
mean anomaly at epoch: 62.1350°
orbit number at epoch: 83327

The dashed part of the orbit path shows where the satellite is in the earth's shadow,  

DLR